• In Germany
  • List of Countries
  • For 7 days
  • Water Temperature
  • Satellite Maps
  • Weather Map
  • Weather Widgets
  • user-avatar
    Login

    Hourly Weather Crete

    Today, 25 September, Tuesday

    Time Temperature Precipitation Wind Pressure Humidity
    00:00 +21°C° 0 mm 2 mps 709 mmHg 70%
    01:00 +21°C° 0 mm 2 mps 709 mmHg 70%
    02:00 +20°C° 0 mm 2 mps 709 mmHg 71%
    03:00 +20°C° 0 mm 2 mps 709 mmHg 71%
    04:00 +20°C° 0 mm 2 mps 708 mmHg 72%
    05:00 +19°C° 0 mm 2 mps 708 mmHg 73%
    06:00 +21°C° 0 mm 2 mps 708 mmHg 68%
    07:00 +23°C° 0 mm 2 mps 709 mmHg 63%
    08:00 +24°C° 0 mm 3 mps 709 mmHg 59%
    09:00 +25°C° 0 mm 3 mps 709 mmHg 56%
    10:00 +26°C° 0 mm 3 mps 710 mmHg 53%
    11:00 +27°C° 0 mm 3 mps 710 mmHg 50%
    12:00 +27°C° 0 mm 3 mps 710 mmHg 49%
    13:00 +28°C° 0 mm 4 mps 710 mmHg 49%
    14:00 +28°C° 0 mm 4 mps 710 mmHg 48%
    15:00 +27°C° 0 mm 5 mps 710 mmHg 50%
    16:00 +26°C° 0 mm 6 mps 710 mmHg 53%
    17:00 +24°C° 0 mm 7 mps 709 mmHg 56%
    18:00 +23°C° 0 mm 7 mps 710 mmHg 60%
    19:00 +22°C° 0 mm 8 mps 710 mmHg 64%
    20:00 +21°C° 0 mm 8 mps 710 mmHg 67%
    21:00 +20°C° 0 mm 8 mps 710 mmHg 67%
    22:00 +19°C° 0 mm 9 mps 711 mmHg 66%
    23:00 +19°C° 0 mm 9 mps 711 mmHg 66%

    Tomorrow, 26 September, Wednesday

    Time Temperature Precipitation Wind Pressure Humidity
    00:00 +19°C° 0 mm 9 mps 711 mmHg 66%
    01:00 +19°C° 0 mm 9 mps 711 mmHg 66%
    02:00 +18°C° 0 mm 10 mps 710 mmHg 66%
    03:00 +18°C° 0 mm 10 mps 710 mmHg 65%
    04:00 +18°C° 0 mm 11 mps 710 mmHg 65%
    05:00 +17°C° 0 mm 11 mps 710 mmHg 65%
    06:00 +18°C° 0 mm 11 mps 710 mmHg 61%
    07:00 +18°C° 0 mm 12 mps 711 mmHg 58%
    08:00 +18°C° 0 mm 12 mps 711 mmHg 54%
    09:00 +19°C° 0 mm 12 mps 711 mmHg 50%
    10:00 +21°C° 0 mm 12 mps 711 mmHg 45%
    11:00 +21°C° 0 mm 12 mps 711 mmHg 41%
    12:00 +21°C° 0 mm 12 mps 711 mmHg 42%
    13:00 +21°C° 0 mm 12 mps 711 mmHg 43%
    14:00 +20°C° 0 mm 13 mps 711 mmHg 44%
    15:00 +19°C° 0.1 mm 13 mps 711 mmHg 47%
    16:00 +18°C° 0.1 mm 13 mps 710 mmHg 50%
    17:00 +17°C° 0.1 mm 13 mps 710 mmHg 53%
    18:00 +17°C° 0.1 mm 13 mps 710 mmHg 56%
    19:00 +15°C° 0.1 mm 13 mps 710 mmHg 58%
    20:00 +14°C° 0.1 mm 13 mps 710 mmHg 60%
    21:00 +14°C° 0.2 mm 12 mps 710 mmHg 60%
    22:00 +14°C° 0.2 mm 12 mps 710 mmHg 60%
    23:00 +14°C° 0.2 mm 12 mps 710 mmHg 61%

    Day after tomorrow, 27 September, Thursday

    Time Temperature Precipitation Wind Pressure Humidity
    00:00 +13°C° 0.4 mm 12 mps 710 mmHg 61%
    01:00 +13°C° 0.4 mm 12 mps 709 mmHg 62%
    02:00 +13°C° 0.4 mm 12 mps 709 mmHg 63%
    03:00 +13°C° 0.7 mm 13 mps 709 mmHg 63%
    04:00 +13°C° 0.7 mm 13 mps 708 mmHg 64%
    05:00 +13°C° 0.7 mm 13 mps 708 mmHg 64%
    06:00 +13°C° 0.9 mm 13 mps 707 mmHg 62%
    07:00 +13°C° 0.9 mm 13 mps 707 mmHg 61%
    08:00 +14°C° 0.9 mm 13 mps 707 mmHg 59%
    09:00 +14°C° 1 mm 13 mps 707 mmHg 59%
    10:00 +15°C° 1 mm 13 mps 707 mmHg 59%
    11:00 +15°C° 1 mm 13 mps 707 mmHg 59%
    12:00 +15°C° 0.9 mm 13 mps 707 mmHg 60%
    13:00 +15°C° 0.9 mm 14 mps 707 mmHg 60%
    14:00 +15°C° 0.9 mm 14 mps 706 mmHg 61%
    15:00 +15°C° 0.6 mm 14 mps 706 mmHg 61%
    16:00 +14°C° 0.6 mm 14 mps 706 mmHg 60%
    17:00 +14°C° 0.6 mm 13 mps 706 mmHg 60%
    18:00 +14°C° 0.6 mm 13 mps 706 mmHg 62%
    19:00 +14°C° 0.6 mm 12 mps 706 mmHg 64%
    20:00 +13°C° 0.6 mm 11 mps 706 mmHg 65%
    21:00 +13°C° 0.7 mm 11 mps 706 mmHg 66%
    22:00 +13°C° 0.7 mm 11 mps 706 mmHg 66%
    23:00 +13°C° 0.7 mm 11 mps 706 mmHg 66%

    28 September, Friday

    Time Temperature Precipitation Wind Pressure Humidity
    00:00 +12°C° 0.3 mm 11 mps 705 mmHg 68%
    01:00 +12°C° 0.3 mm 10 mps 705 mmHg 70%
    02:00 +11°C° 0.3 mm 10 mps 705 mmHg 72%
    03:00 +12°C° 0.2 mm 9 mps 705 mmHg 73%
    04:00 +13°C° 0.2 mm 9 mps 705 mmHg 74%
    05:00 +15°C° 0.2 mm 8 mps 705 mmHg 74%
    06:00 +15°C° 0.4 mm 8 mps 705 mmHg 71%
    07:00 +16°C° 0.4 mm 8 mps 706 mmHg 67%
    08:00 +17°C° 0.4 mm 8 mps 706 mmHg 64%
    09:00 +17°C° 0.2 mm 8 mps 706 mmHg 59%
    10:00 +18°C° 0.2 mm 8 mps 707 mmHg 55%
    11:00 +20°C° 0.2 mm 8 mps 707 mmHg 51%
    12:00 +20°C° 0.2 mm 8 mps 707 mmHg 50%
    13:00 +20°C° 0.2 mm 8 mps 707 mmHg 49%
    14:00 +20°C° 0.2 mm 8 mps 707 mmHg 48%
    15:00 +20°C° 0.2 mm 7 mps 708 mmHg 50%
    16:00 +20°C° 0.2 mm 7 mps 708 mmHg 51%
    17:00 +19°C° 0.2 mm 6 mps 708 mmHg 52%
    18:00 +19°C° 0.1 mm 6 mps 708 mmHg 55%
    19:00 +17°C° 0.1 mm 6 mps 708 mmHg 57%
    20:00 +17°C° 0.1 mm 5 mps 709 mmHg 60%
    21:00 +17°C° 0.2 mm 5 mps 709 mmHg 62%
    22:00 +16°C° 0.2 mm 5 mps 709 mmHg 63%
    23:00 +16°C° 0.2 mm 5 mps 709 mmHg 65%

    29 September, Saturday

    Time Temperature Precipitation Wind Pressure Humidity
    00:00 +17°C° 0.2 mm 4 mps 709 mmHg 66%
    01:00 +15°C° 0.2 mm 4 mps 708 mmHg 67%
    02:00 +15°C° 0.2 mm 4 mps 708 mmHg 67%
    03:00 +15°C° 0.4 mm 4 mps 708 mmHg 68%
    04:00 +15°C° 0.4 mm 4 mps 708 mmHg 69%
    05:00 +15°C° 0.4 mm 4 mps 708 mmHg 70%
    06:00 +16°C° 0.1 mm 3 mps 708 mmHg 68%
    07:00 +17°C° 0.1 mm 3 mps 709 mmHg 66%
    08:00 +18°C° 0.1 mm 3 mps 709 mmHg 64%
    09:00 +18°C° 0.1 mm 3 mps 709 mmHg 59%
    10:00 +19°C° 0.1 mm 3 mps 709 mmHg 55%
    11:00 +20°C° 0.1 mm 3 mps 710 mmHg 51%
    12:00 +20°C° 0 mm 4 mps 709 mmHg 48%
    13:00 +21°C° 0 mm 4 mps 709 mmHg 45%
    14:00 +22°C° 0 mm 4 mps 709 mmHg 43%
    15:00 +21°C° 0 mm 4 mps 709 mmHg 44%
    16:00 +21°C° 0 mm 4 mps 709 mmHg 46%
    17:00 +21°C° 0 mm 4 mps 709 mmHg 48%
    18:00 +20°C° 0 mm 4 mps 710 mmHg 51%
    19:00 +20°C° 0 mm 4 mps 710 mmHg 54%
    20:00 +19°C° 0 mm 3 mps 710 mmHg 57%
    21:00 +18°C° 0 mm 3 mps 710 mmHg 58%
    22:00 +18°C° 0 mm 3 mps 710 mmHg 59%
    23:00 +18°C° 0 mm 3 mps 710 mmHg 60%

    30 September, Sunday

    Time Temperature Precipitation Wind Pressure Humidity
    00:00 +17°C° 0 mm 3 mps 710 mmHg 59%
    01:00 +17°C° 0 mm 3 mps 710 mmHg 58%
    02:00 +17°C° 0 mm 3 mps 710 mmHg 58%
    03:00 +17°C° 0 mm 3 mps 710 mmHg 57%
    04:00 +17°C° 0 mm 3 mps 710 mmHg 57%
    05:00 +17°C° 0 mm 3 mps 710 mmHg 56%
    06:00 +17°C° 0 mm 2 mps 710 mmHg 55%
    07:00 +18°C° 0 mm 2 mps 711 mmHg 53%
    08:00 +19°C° 0 mm 2 mps 711 mmHg 51%
    09:00 +20°C° 0 mm 2 mps 711 mmHg 47%
    10:00 +22°C° 0 mm 1 mps 711 mmHg 43%
    11:00 +23°C° 0 mm 1 mps 711 mmHg 40%
    12:00 +24°C° 0 mm 1 mps 711 mmHg 39%
    13:00 +24°C° 0 mm 2 mps 711 mmHg 38%
    14:00 +24°C° 0 mm 2 mps 711 mmHg 37%
    15:00 +24°C° 0 mm 2 mps 711 mmHg 41%
    16:00 +24°C° 0 mm 2 mps 710 mmHg 45%
    17:00 +23°C° 0 mm 2 mps 710 mmHg 49%
    18:00 +21°C° 0 mm 2 mps 710 mmHg 51%
    19:00 +21°C° 0 mm 2 mps 711 mmHg 53%
    20:00 +20°C° 0 mm 2 mps 711 mmHg 55%
    21:00 +20°C° 0 mm 2 mps 711 mmHg 56%
    22:00 +19°C° 0 mm 2 mps 710 mmHg 58%
    23:00 +19°C° 0 mm 2 mps 710 mmHg 60%
    Show more